Погода в Магуне

Тайвань     23°34′04″N   119°34′47″E
темп.,
°C
ветер,
м/с
пор.,
м/с
влажн.,
%
обл.,
%
осадки,
мм/ч
давл.,
гПа
погр.,
м
12 августа, пт
пт1223:00+29зюз44780 0.0 1010413
02:00+29юз44760 0.0 1009526
05:00+29юз33770 0.0 1009565
08:00+28зюз44770 0.0 1010552
11:00+29зюз44760 0.0 1010605
14:00+29зюз55750 0.0 1009669
17:00+29зюз44743 0.0 1008575
20:00+29юз55765 0.0 1008483
13 августа, сб
сб1323:00+29юз667713 0.0 1009559
02:00+29юз56785 0.0 1008637
05:00+29юз5579100 0.0 1008630
08:00+29юз337998 0.0 1009604
11:00+29юз33777 0.0 1009628
14:00+29зюз55776 0.0 1008697
17:00+29юз5577100 0.0 1007626
20:00+29юз447977 0.0 1008501
14 августа, вс
вс1423:00+29ююз55807 0.0 1009489
02:00+29ююз55795 0.0 1007588
05:00+29юз33785 0.0 1007568
08:00+29юз22775 0.0 1009564
11:00+29зюз22765 0.0 1009581
14:00+29з337443 0.0 1007574
17:00+30зюз3372100 0.0 1006553
20:00+29ююз33775 0.0 1008365
15 августа, пн
пн1523:00+29ююз457877 0.0 1008501
02:00+29юз457854 0.0 1007573
05:00+28зюз44805 0.4 1007415
08:00+28зюз448089 1.4 1008469
11:00+28зюз34810 0.9 1008454
14:00+29юз45750 1.1 1006646
17:00+29юз45775 0.0 1006630
20:00+29ююз56825 0.0 1007624
16 августа, вт
вт1623:00+29ююз67835 0.0 1007637
02:00+29ююз78820 0.1 1006789
05:00+29ююз67790 1.2 1007706
08:00+29юз45790 4.3 1008558
11:00+29юз45760 0.1 1008586
14:00+29юз44750 0.1 1006681
17:00+29ююз55760 0.0 1006671
20:00+29ю46805 0.0 1007600